Regional Weather Roundup
Issued by NWS Memphis, TN

Home | Current Version | Previous Version | Text Only | Print | Product List | Glossary On
Versions: 1 2 3 4 5 6 7 8 9 10 11 12 13 14 15 16 17 18 19 20 21 22 23 24 25 26 27 28 29 30 31 32 33 34 35 36 37 38 39 40 41 42 43 44 45 46 47 48 49 50
159
ASUS44 KMEG 300110
RWRMEG
MEMPHIS CWA HOURLY WEATHER ROUNDUP
NATIONAL WEATHER SERVICE MEMPHIS TN
800 PM CDT SUN MAY 29 2016

...WEST TENNESSEE...

CITY           SKY/WX    TMP DP  RH WIND       PRES   REMARKS
MEMPHIS INTL   CLOUDY    82  68  62 W7        30.06R
NWS MEMPHIS      N/A     80 N/A N/A MISG        N/A
JACKSON        PTCLDY    79  71  76 W6        30.04R
LEXINGTON      CLEAR     77  70  78 CALM      30.04R
DYERSBURG      CLOUDY    79  70  73 CALM      30.04S
UNION CITY     PTCLDY    81  68  65 W3        30.03S
PARIS          CLEAR     77  68  73 CALM      30.05S


...EASTERN ARKANSAS...

CITY           SKY/WX    TMP DP  RH WIND       PRES   REMARKS
JONESBORO      MOCLDY    80  70  71 W3        30.05S
WEST MEMPHIS   MOCLDY    81  70  69 CALM      30.05R
BATESVILLE     CLOUDY    79  66  65 CALM      30.06S
NEWPORT        CLOUDY    81  72  74 S3        30.06S
WALNUT RIDGE   CLOUDY    81  64  57 CALM      30.05S
BLYTHEVILLE    MOCLDY    81  70  69 VRB6      30.04S
SEARCY         CLOUDY    75  73  94 S5        30.07S
STUTTGART      MOCLDY    73  64  73 SE8       30.05F
PINE BLUFF     CLOUDY    71  63  75 E7        30.05F
MONTICELLO     CLOUDY    69  64  84 NE6       30.07F


...NORTH MISSISSIPPI...

CITY           SKY/WX    TMP DP  RH WIND       PRES   REMARKS
TUPELO         PTCLDY    82  64  54 SW3       30.03S
OXFORD         PTCLDY    79  68  69 NW3       30.07S
BATESVILLE     CLOUDY    80  71  74 CALM      30.06S
OLIVE BRANCH   MOCLDY    81  70  69 W5        30.06R
TUNICA         CLOUDY    79  70  73 W7        30.07R
CLARKSDALE     MOCLDY    72  70  94 W31       30.08F FOG
CORINTH        PTCLDY    81  68  65 CALM      30.03S
GREENWOOD      PTCLDY    82  66  58 NW3       30.04S
COLUMBUS       CLEAR     80  70  73 CALM      30.02S
STARKVILLE     CLEAR     77  68  73 CALM      30.03R
GOLDEN TRIANGL CLEAR     84  63  48 NW5       30.03R


...SOUTHEAST MISSOURI...

CITY           SKY/WX    TMP DP  RH WIND       PRES   REMARKS
KENNETT        MOCLDY    82  68  61 W3        30.03S
WEST PLAINS    CLEAR     75  64  68 CALM      30.10S
POPLAR BLUFF   CLOUDY    79  67  66 NW5       30.04S
CAPE GIRARDEAU PTCLDY    80  67  64 CALM      30.03F


...NORTHWEST ALABAMA...

CITY           SKY/WX    TMP DP  RH WIND       PRES   REMARKS
MUSCLE SHOALS  CLEAR     80  63  55 NW5       30.04S


...MIDDLE TENNESSEE...

CITY           SKY/WX    TMP DP  RH WIND       PRES   REMARKS
NASHVILLE      PTCLDY    82  64  54 W7        30.04R
CLARKSVILLE    PTCLDY    80  66  62 CALM      30.03S
COLUMBIA       CLEAR     81  70  69 CALM      30.04S


...WESTERN KENTUCKY...

CITY           SKY/WX    TMP DP  RH WIND       PRES   REMARKS
PADUCAH        CLEAR     75  63  66 CALM      30.03R
FORT CAMPBELL  DRIZZLE   76  67  73 N8        30.03S


...CENTRAL ARKANSAS...

CITY           SKY/WX    TMP DP  RH WIND       PRES   REMARKS
LITTLE ROCK    CLOUDY    74  62  66 CALM      30.06R


SKY/WX REPORTED AS FAIR MEANS FEW OR NO CLOUDS BELOW
12 THOUSAND FEET.





USA.gov is the U.S. government's official web portal to all federal, state and local government web resources and services.